SCP
0 0 0 0 0 0 0 0 0 0 0 0 0 0 0 0 0 0 0 0 0 0
0 0 0 0 0 0 0 0 0 0 0 0 0 0 0 0 0 0 0 0 0 0
0 0 0 0 0 0 0 0 0 0 0 0 0 0 0 0 0 0 0 0 0 0
0 0 0 0 0 0 0 0 0 0 0 0 0 0 0 0 0 0 0 0 0 0
0 0 0 0 0 0 0 0 0 0 0 0 0 0 0 0 0 0 0 0 0 0
0 0 0 0 0 0 0 0 0 0 0 0 0 0 0 0 0 0 0 0 0 0
0 0 0 0 0 0 0 0 0 0 0 0 0 0 0 0 0 0 0 0 0 0
0 0 0 0 0 0 0 0 0 0 0 0 0 0 0 0 0 0 0 0 0 0
0 0 0 0 0 0 0 0 0 0 0 0 0 0 0 0 0 0 0 0 0 0
0 0 0 0 0 0 0 0 0 0 0 0 0 0 0 0 0 0 0 0 0 0
0 0 0 0 0 0 0 0 0 0 0 0 0 0 0 0 0 0 0 0 0 0
0 0 0 0 0 0 0 0 0 0 0 0 0 0 0 0 0 0 0 0 0 0
0 0 0 0 0 0 0 0 0 0 0 0 0 0 0 0 0 0 0 0 0 0
0 0 0 0 0 0 0 0 0 0 0 0 0 0 0 0 0 0 0 0 0 0
Wind_Speed_500mb
41 31 25 20 19 12 7 3 3 5 8 10 10 10 10 11 13 15 16 17 20 21
33 27 23 23 16 10 8 6 3 5 7 10 10 10 11 13 14 16 19 21 22 26
30 25 24 17 13 11 9 5 3 5 8 10 11 13 14 15 17 19 22 25 27 29
32 28 20 18 15 13 8 4 5 7 9 11 14 16 18 19 21 23 26 29 31 33
34 29 23 20 16 12 8 6 6 8 11 14 16 18 20 23 25 27 29 31 35 36
30 27 24 19 17 13 9 8 9 12 13 16 18 21 23 25 28 30 33 35 37 37
29 24 22 20 17 13 11 12 13 13 16 18 20 23 25 29 31 33 36 37 39 40
28 25 22 20 16 13 14 15 15 16 18 20 22 27 28 31 34 36 38 40 42 44
27 24 21 17 16 18 18 18 18 19 20 22 25 29 32 32 36 40 42 45 44 46
28 23 20 19 20 20 21 21 21 21 23 25 27 31 36 38 40 43 44 46 46 46
27 21 19 21 23 23 24 24 23 24 25 28 31 36 38 40 42 43 43 45 46 46
22 19 22 25 24 26 27 26 25 26 29 33 36 40 41 42 44 45 45 45 45 45
22 24 25 25 27 29 27 26 29 32 36 39 40 41 43 45 47 50 48 47 45 43
27 25 25 29 29 28 30 33 36 40 41 41 44 43 47 48 48 49 47 47 44 44
Wind_Direction_500mb
172 170 174 174 184 170 170 203 286 322 327 332 335 329 330 337 346 351 347 347 345 337
176 173 180 184 167 171 196 220 278 316 322 319 322 319 324 330 336 335 334 332 330 329
184 179 186 173 175 196 207 230 284 307 321 316 314 313 317 323 329 325 322 324 324 322
182 186 182 183 197 208 215 234 278 312 310 306 305 309 319 318 317 317 317 317 318 321
187 182 184 194 206 214 222 246 278 297 295 302 310 310 312 313 311 309 310 313 314 314
189 191 193 202 214 219 230 255 280 285 301 309 308 309 309 305 302 304 307 308 308 313
192 195 202 211 218 225 242 260 275 296 304 304 301 301 303 302 304 308 308 308 311 315
197 204 212 217 227 245 259 269 282 292 294 295 302 306 306 306 309 310 311 311 312 311
204 212 219 232 248 256 262 271 280 282 293 305 305 304 313 315 315 311 308 305 306 304
213 218 230 246 256 262 266 271 273 288 298 302 304 309 315 315 309 302 302 302 302 301
214 226 247 259 263 265 268 271 277 287 297 305 309 308 307 303 299 300 302 302 300 305
222 242 258 264 267 270 271 268 277 293 302 300 300 299 296 297 302 302 303 301 303 307
236 251 263 270 274 272 276 279 287 292 293 294 292 294 299 300 301 301 301 298 301 305
243 257 273 275 277 282 285 281 281 284 286 290 295 301 304 304 300 297 297 299 303 303
Wind_Speed_850mb
41 31 25 20 19 12 7 3 3 5 8 10 10 10 10 11 13 15 16 17 20 21
33 27 23 23 16 10 8 6 3 5 7 10 10 10 11 13 14 16 19 21 22 26
30 25 24 17 13 11 9 5 3 5 8 10 11 13 14 15 17 19 22 25 27 29
32 28 20 18 15 13 8 4 5 7 9 11 14 16 18 19 21 23 26 29 31 33
34 29 23 20 16 12 8 6 6 8 11 14 16 18 20 23 25 27 29 31 35 36
30 27 24 19 17 13 9 8 9 12 13 16 18 21 23 25 28 30 33 35 37 37
29 24 22 20 17 13 11 12 13 13 16 18 20 23 25 29 31 33 36 37 39 40
28 25 22 20 16 13 14 15 15 16 18 20 22 27 28 31 34 36 38 40 42 44
27 24 21 17 16 18 18 18 18 19 20 22 25 29 32 32 36 40 42 45 44 46
28 23 20 19 20 20 21 21 21 21 23 25 27 31 36 38 40 43 44 46 46 46
27 21 19 21 23 23 24 24 23 24 25 28 31 36 38 40 42 43 43 45 46 46
22 19 22 25 24 26 27 26 25 26 29 33 36 40 41 42 44 45 45 45 45 45
22 24 25 25 27 29 27 26 29 32 36 39 40 41 43 45 47 50 48 47 45 43
27 25 25 29 29 28 30 33 36 40 41 41 44 43 47 48 48 49 47 47 44 44
Wind_Direction_850mb
172 170 174 174 184 170 170 203 286 322 327 332 335 329 330 337 346 351 347 347 345 337
176 173 180 184 167 171 196 220 278 316 322 319 322 319 324 330 336 335 334 332 330 329
184 179 186 173 175 196 207 230 284 307 321 316 314 313 317 323 329 325 322 324 324 322
182 186 182 183 197 208 215 234 278 312 310 306 305 309 319 318 317 317 317 317 318 321
187 182 184 194 206 214 222 246 278 297 295 302 310 310 312 313 311 309 310 313 314 314
189 191 193 202 214 219 230 255 280 285 301 309 308 309 309 305 302 304 307 308 308 313
192 195 202 211 218 225 242 260 275 296 304 304 301 301 303 302 304 308 308 308 311 315
197 204 212 217 227 245 259 269 282 292 294 295 302 306 306 306 309 310 311 311 312 311
204 212 219 232 248 256 262 271 280 282 293 305 305 304 313 315 315 311 308 305 306 304
213 218 230 246 256 262 266 271 273 288 298 302 304 309 315 315 309 302 302 302 302 301
214 226 247 259 263 265 268 271 277 287 297 305 309 308 307 303 299 300 302 302 300 305
222 242 258 264 267 270 271 268 277 293 302 300 300 299 296 297 302 302 303 301 303 307
236 251 263 270 274 272 276 279 287 292 293 294 292 294 299 300 301 301 301 298 301 305
243 257 273 275 277 282 285 281 281 284 286 290 295 301 304 304 300 297 297 299 303 303